Export;EXP-2023-01 (20230709 20:28);;;StationsCode;NL10131;NL10235;NL10538;NL10540;NL10633;NL10722;NL10734;NL10928
Periode;19930101 00:00 - 19940101 00:00;;;BeheerderMeetStation;RIVM;RIVM;RIVM;RIVM;RIVM;RIVM;RIVM;RIVM
Bron;https://data.rivm.nl/data/luchtmeetnet;;;StationsNaam;Vredepeel-Vredeweg;Huijbergen-Vennekenstraat;Wieringerwerf-Medemblikkerweg;Leiduin;Zegveld-Oude Meije;Eibergen-Lintveldseweg;Lunteren;Witteveen-Talmaweg
Beschrijving data;https://data.rivm.nl/data/luchtmeetnet/readme.pdf;;;Latitude,Longitude;(51.54052,5.85307);(51.434443,4.359835);(52.803657,5.050509);(52.346001,4.598);(52.13795,4.83819);(52.091801,6.605367);(52.109658,5.637581);(52.81361,6.669722)
Accreditatienummer;https://www.rva.nl/alle-geaccrediteerden/;;;StationsGebied;regionaal;regionaal;regionaal;regionaal;regionaal;regionaal;regionaal;regionaal
;;;;StationsType;achtergrond;achtergrond;achtergrond;achtergrond;achtergrond;achtergrond;achtergrond;achtergrond
;;;;Meetprincipe;Geleidbaarheid;Geleidbaarheid;Geleidbaarheid;Geleidbaarheid;Geleidbaarheid;Geleidbaarheid;Geleidbaarheid;Geleidbaarheid
;;;;Meetopstelling;NH3 monitor AMOR ;NH3 monitor AMOR ;NH3 monitor AMOR ;NH3 monitor AMOR ;NH3 monitor AMOR ;NH3 monitor AMOR ;NH3 monitor AMOR ;NH3 monitor AMOR 
;;;;Accreditatienummer;nvt;nvt;nvt;nvt;nvt;nvt;nvt;nvt
Component;Bep.periode;Eenheid; Begindatumtijd;Einddatumtijd;NL10131;NL10235;NL10538;NL10540;NL10633;NL10722;NL10734;NL10928
NH3;uur;�g/m�;19930101 00:00;19930101 01:00;59.507;4.022;;0.888;44.384;23.774;61.119;0.183
NH3;uur;�g/m�;19930101 01:00;19930101 02:00;63.861;2.868;;0.767;57.433;25.934;55.215;0.201
NH3;uur;�g/m�;19930101 02:00;19930101 03:00;108.645;2.191;;0.697;38.343;27.393;63.725;0.194
NH3;uur;�g/m�;19930101 03:00;19930101 04:00;91.528;2.382;;0.712;36.101;22.656;42.706;0.225
NH3;uur;�g/m�;19930101 04:00;19930101 05:00;95.188;3.554;;0.865;40.433;26.396;36.984;0.312
NH3;uur;�g/m�;19930101 05:00;19930101 06:00;85.269;4.402;;0.94;38.112;36.354;50.094;0.252
NH3;uur;�g/m�;19930101 06:00;19930101 07:00;93.09;3.707;;0.843;48.529;27.977;32.062;0.319
NH3;uur;�g/m�;19930101 07:00;19930101 08:00;68.374;4.607;;0.841;33.29;33.134;45.052;0.243
NH3;uur;�g/m�;19930101 08:00;19930101 09:00;80.399;5.436;;0.929;25.676;32.545;37.004;0.213
NH3;uur;�g/m�;19930101 09:00;19930101 10:00;36.152;3.971;;0.877;24.613;27.811;43.661;0.239
NH3;uur;�g/m�;19930101 10:00;19930101 11:00;23.856;6.94;;0.843;28.492;21.958;32.825;0.861
NH3;uur;�g/m�;19930101 11:00;19930101 12:00;17.249;10.241;;0.756;20.175;17.576;11.086;1.621
NH3;uur;�g/m�;19930101 12:00;19930101 13:00;14.406;6.864;;1.164;8.583;12.872;7.923;2.201
NH3;uur;�g/m�;19930101 13:00;19930101 14:00;16.466;3.488;;1.662;6.074;13.374;6.661;1.96
NH3;uur;�g/m�;19930101 14:00;19930101 15:00;15;2.61;;2.239;6.36;13.49;5.035;1.248
NH3;uur;�g/m�;19930101 15:00;19930101 16:00;11.715;3.784;;1.919;8.962;11.94;4.484;0.813
NH3;uur;�g/m�;19930101 16:00;19930101 17:00;12.311;3.678;;1.612;14.208;15.337;6.364;0.55
NH3;uur;�g/m�;19930101 17:00;19930101 18:00;12.89;2.065;;1.489;17.573;13.494;16.79;0.431
NH3;uur;�g/m�;19930101 18:00;19930101 19:00;13.082;1.493;;1.978;21.194;13.71;19.757;0.443
NH3;uur;�g/m�;19930101 19:00;19930101 20:00;11.99;1.246;;1.553;30.621;16.624;33.834;0.566
NH3;uur;�g/m�;19930101 20:00;19930101 21:00;11.463;1.081;;1.559;25.573;16.536;37.362;0.647
NH3;uur;�g/m�;19930101 21:00;19930101 22:00;10.742;1.041;;1.877;20.022;13.815;33.368;0.571
NH3;uur;�g/m�;19930101 22:00;19930101 23:00;10.16;1.194;;2.785;27.592;14.572;15.665;0.655
NH3;uur;�g/m�;19930101 23:00;19930102 00:00;9.169;1.564;;3.368;28.972;21.56;7.921;0.942
NH3;uur;�g/m�;19930102 00:00;19930102 01:00;9.264;1.801;;3.647;26.357;17.637;5.721;1.252
NH3;uur;�g/m�;19930102 01:00;19930102 02:00;9.495;1.571;;4.006;17.167;16.591;4.626;1.335
NH3;uur;�g/m�;19930102 02:00;19930102 03:00;7.361;1.28;;4.169;13.619;15.94;3.918;1.495
NH3;uur;�g/m�;19930102 03:00;19930102 04:00;8.012;1.113;;3.823;11.901;18.965;3.582;1.35
NH3;uur;�g/m�;19930102 04:00;19930102 05:00;7.908;1.112;;4.225;11.211;14.328;3.356;1.207
NH3;uur;�g/m�;19930102 05:00;19930102 06:00;7.16;1.377;;4.418;13.275;13.772;2.932;1.092
NH3;uur;�g/m�;19930102 06:00;19930102 07:00;6.921;1.51;;4.013;10.78;15.65;2.687;0.977
NH3;uur;�g/m�;19930102 07:00;19930102 08:00;6.701;1.818;;3.672;9.305;14.774;3.918;1.003
NH3;uur;�g/m�;19930102 08:00;19930102 09:00;8.078;2.287;;3.903;14.354;15.77;5.677;1.363
NH3;uur;�g/m�;19930102 09:00;19930102 10:00;9.417;3.085;;4.446;40.363;11.96;4.015;1.484
NH3;uur;�g/m�;19930102 10:00;19930102 11:00;8.956;3.386;;4.982;43.824;11.752;3.45;1.574
NH3;uur;�g/m�;19930102 11:00;19930102 12:00;7.792;2.356;;5.627;45.407;12.25;3.553;1.951
NH3;uur;�g/m�;19930102 12:00;19930102 13:00;9.023;3.802;;8.17;44.4;11.838;3.871;1.99
NH3;uur;�g/m�;19930102 13:00;19930102 14:00;8.536;4.327;;11.564;42.684;10.681;4.024;1.537
NH3;uur;�g/m�;19930102 14:00;19930102 15:00;7.697;2.566;;16.591;47.639;11.073;3.901;1.274
NH3;uur;�g/m�;19930102 15:00;19930102 16:00;7.053;3.776;;16.396;57.36;11.076;3.42;0.964
NH3;uur;�g/m�;19930102 16:00;19930102 17:00;6.923;4.455;;16.474;64.652;9.886;5.074;0.654
NH3;uur;�g/m�;19930102 17:00;19930102 18:00;8.073;3.571;;17.481;88.083;9.319;14.608;0.575
NH3;uur;�g/m�;19930102 18:00;19930102 19:00;38.72;5.35;;20.59;174.591;;20.695;0.691
NH3;uur;�g/m�;19930102 19:00;19930102 20:00;63.181;5.684;;13.311;237.282;13.888;14.625;0.737
NH3;uur;�g/m�;19930102 20:00;19930102 21:00;19.738;5.101;;11.596;201.545;13.948;10.029;0.661
NH3;uur;�g/m�;19930102 21:00;19930102 22:00;18.359;4.031;;13.84;83.548;12.679;13.663;0.56
NH3;uur;�g/m�;19930102 22:00;19930102 23:00;17.849;4.421;;13.816;102.234;10.396;14.225;0.579
NH3;uur;�g/m�;19930102 23:00;19930103 00:00;50.324;5.718;;11.889;117.771;10.101;12.42;0.558
NH3;uur;�g/m�;19930103 00:00;19930103 01:00;17.652;5.766;;10.784;39.202;12.557;10.694;0.494
NH3;uur;�g/m�;19930103 01:00;19930103 02:00;10.628;6.674;;10.779;26.753;;6.426;0.414
NH3;uur;�g/m�;19930103 02:00;19930103 03:00;9.675;6.001;;9.637;34.571;9.845;5.635;0.396
NH3;uur;�g/m�;19930103 03:00;19930103 04:00;9.406;4.873;;8.555;25.196;8.84;6.814;0.392
NH3;uur;�g/m�;19930103 04:00;19930103 05:00;10.871;5.124;;7.808;20.439;9.792;9.858;0.365
NH3;uur;�g/m�;19930103 05:00;19930103 06:00;9.988;5.92;;6.787;20.427;8.567;12.524;0.332
NH3;uur;�g/m�;19930103 06:00;19930103 07:00;13.05;6.065;;6.327;16.988;8.652;14.642;0.284
NH3;uur;�g/m�;19930103 07:00;19930103 08:00;51.591;5.159;;6.192;26.274;9.666;13.745;0.292
NH3;uur;�g/m�;19930103 08:00;19930103 09:00;16.141;4.91;;6.486;49.288;10.562;12.78;0.29
NH3;uur;�g/m�;19930103 09:00;19930103 10:00;26.093;3.799;;6.185;64.428;6.927;10.328;0.264
NH3;uur;�g/m�;19930103 10:00;19930103 11:00;11.77;5.963;;5.589;34.856;5.41;5.819;0.253
NH3;uur;�g/m�;19930103 11:00;19930103 12:00;12.555;6.579;;5.195;16.133;4.243;5.925;0.227
NH3;uur;�g/m�;19930103 12:00;19930103 13:00;9.01;5.241;;5.467;17.34;3.923;4.785;0.193
NH3;uur;�g/m�;19930103 13:00;19930103 14:00;7.771;4.469;;5.255;16.821;3.749;5.22;0.153
NH3;uur;�g/m�;19930103 14:00;19930103 15:00;7.658;4.701;;5.346;16.821;3.722;6.803;0.137
NH3;uur;�g/m�;19930103 15:00;19930103 16:00;8.776;4.779;;4.722;21.65;3.497;10.354;0.123
NH3;uur;�g/m�;19930103 16:00;19930103 17:00;10.935;4.664;;4.867;25.145;3.735;13.008;0.109
NH3;uur;�g/m�;19930103 17:00;19930103 18:00;26.961;4.337;;4.837;20.7;3.833;14.657;0.107
NH3;uur;�g/m�;19930103 18:00;19930103 19:00;20.701;4.897;;3.869;26.648;4.237;9.464;0.11
NH3;uur;�g/m�;19930103 19:00;19930103 20:00;9.536;6.505;;3.732;21.387;4.689;7.703;0.11
NH3;uur;�g/m�;19930103 20:00;19930103 21:00;15.799;6.248;;3.556;13.835;5.529;5.675;0.098
NH3;uur;�g/m�;19930103 21:00;19930103 22:00;10.026;5.661;;3.45;15.547;7.551;5.794;0.104
NH3;uur;�g/m�;19930103 22:00;19930103 23:00;10.105;5.473;;2.881;16.942;7.304;6.609;0.086
NH3;uur;�g/m�;19930103 23:00;19930104 00:00;9.586;4.352;;3.163;15.194;6.891;5.649;0.09
NH3;uur;�g/m�;19930104 00:00;19930104 01:00;10.213;4.121;;3.195;11.809;7.856;4.711;0.11
NH3;uur;�g/m�;19930104 01:00;19930104 02:00;10.877;3.006;;3.479;10.602;8.648;4.789;0.142
NH3;uur;�g/m�;19930104 02:00;19930104 03:00;11.003;3.158;;4.037;14.579;8.339;4.839;0.185
NH3;uur;�g/m�;19930104 03:00;19930104 04:00;11.919;2.837;;5.467;15.25;8.118;4.426;0.215
NH3;uur;�g/m�;19930104 04:00;19930104 05:00;12.822;2.667;;6.548;15.815;8.37;3.67;0.246
NH3;uur;�g/m�;19930104 05:00;19930104 06:00;11.026;2.469;;7.918;16.396;8.039;3.279;0.296
NH3;uur;�g/m�;19930104 06:00;19930104 07:00;10.156;1.991;;9.78;16.806;8.45;3.039;0.469
NH3;uur;�g/m�;19930104 07:00;19930104 08:00;10.959;2.129;;9.585;16.715;10.03;3.202;0.527
NH3;uur;�g/m�;19930104 08:00;19930104 09:00;15.979;2.553;;9.168;16.817;9.546;3.357;0.737
NH3;uur;�g/m�;19930104 09:00;19930104 10:00;14.852;1.976;;9.241;16.49;9.101;3.829;0.964
NH3;uur;�g/m�;19930104 10:00;19930104 11:00;13.695;1.664;;;14.623;9.391;4.122;1.312
NH3;uur;�g/m�;19930104 11:00;19930104 12:00;12.953;1.395;;;12.587;8.956;5.214;1.185
NH3;uur;�g/m�;19930104 12:00;19930104 13:00;12.879;1.112;;;13.764;8.715;5.816;1.203
NH3;uur;�g/m�;19930104 13:00;19930104 14:00;10.832;1.106;;;16.423;7.036;6.659;1.655
NH3;uur;�g/m�;19930104 14:00;19930104 15:00;9.146;1.033;9.254;11.132;23.275;6.884;7.756;1.971
NH3;uur;�g/m�;19930104 15:00;19930104 16:00;9.454;1.006;16.511;10.292;29.883;5.751;8.608;1.786
NH3;uur;�g/m�;19930104 16:00;19930104 17:00;10.154;1.03;18.105;11.992;28.285;5.812;9.097;2.934
NH3;uur;�g/m�;19930104 17:00;19930104 18:00;11.991;0.997;22.683;12.698;37.888;6.248;9.793;2.978
NH3;uur;�g/m�;19930104 18:00;19930104 19:00;16.749;1.072;19.718;17.424;63.022;8.441;10.661;1.981
NH3;uur;�g/m�;19930104 19:00;19930104 20:00;21.288;1.311;25.867;18.959;62.851;13.404;11.799;1.728
NH3;uur;�g/m�;19930104 20:00;19930104 21:00;21.725;1.984;22.422;17.146;46.519;18.674;12.185;2.518
NH3;uur;�g/m�;19930104 21:00;19930104 22:00;17.357;2.493;15.431;16.919;40.342;14.854;11.175;1.843
NH3;uur;�g/m�;19930104 22:00;19930104 23:00;17.504;2.348;15.694;16.69;46.683;17.242;17.261;2.238
NH3;uur;�g/m�;19930104 23:00;19930105 00:00;17.704;1.942;16.636;23.881;33.821;16.083;20.463;2.449
NH3;uur;�g/m�;19930105 00:00;19930105 01:00;16.827;1.715;19.529;18.49;30.608;14.344;18.706;3.384
NH3;uur;�g/m�;19930105 01:00;19930105 02:00;15.345;1.484;17.48;17.246;39.194;12.303;17.849;4.062
NH3;uur;�g/m�;19930105 02:00;19930105 03:00;17.164;1.333;19.239;14.48;35.064;12.372;17.707;5.265
NH3;uur;�g/m�;19930105 03:00;19930105 04:00;15.241;1.314;20.321;12.43;34.764;11.667;16.625;5.797
NH3;uur;�g/m�;19930105 04:00;19930105 05:00;12.995;1.228;21.648;10.321;27.496;11.641;13.635;5.292
NH3;uur;�g/m�;19930105 05:00;19930105 06:00;14.16;1.19;20.002;7.498;18.249;10.789;12.569;5.331
NH3;uur;�g/m�;19930105 06:00;19930105 07:00;16.264;1.172;13.655;10.423;17.814;;9.902;5.566
NH3;uur;�g/m�;19930105 07:00;19930105 08:00;17.743;1.217;11.584;9.146;18.331;8.328;8.256;5.358
NH3;uur;�g/m�;19930105 08:00;19930105 09:00;17.543;1.356;10.924;9.206;16.466;8.632;8.665;4.7
NH3;uur;�g/m�;19930105 09:00;19930105 10:00;18.042;1.545;11.631;9.963;17.567;9.134;9.301;3.75
NH3;uur;�g/m�;19930105 10:00;19930105 11:00;16.849;1.652;13.132;10.653;26.488;;10.35;
NH3;uur;�g/m�;19930105 11:00;19930105 12:00;15.922;1.337;12.535;11.595;28.899;;12.136;
NH3;uur;�g/m�;19930105 12:00;19930105 13:00;14.062;1.207;20.854;13.312;36.108;;16.118;
NH3;uur;�g/m�;19930105 13:00;19930105 14:00;15.646;1.633;27.924;7.985;44.432;7.589;21.07;
NH3;uur;�g/m�;19930105 14:00;19930105 15:00;13.261;2.418;;4.391;22.678;7.269;22.834;4.087
NH3;uur;�g/m�;19930105 15:00;19930105 16:00;12.143;2.986;;4.612;19.674;8.514;16.375;3.728
NH3;uur;�g/m�;19930105 16:00;19930105 17:00;9.975;2.728;;3.913;23.198;9.282;14.278;2.967
NH3;uur;�g/m�;19930105 17:00;19930105 18:00;8.99;2.065;;3.478;23.904;8.73;15.21;1.739
NH3;uur;�g/m�;19930105 18:00;19930105 19:00;10.226;1.884;;2.719;15.584;6.964;15.361;1.259
NH3;uur;�g/m�;19930105 19:00;19930105 20:00;10.023;1.857;;2.551;12.979;6.641;16.038;1.045
NH3;uur;�g/m�;19930105 20:00;19930105 21:00;8.558;1.716;;2.79;12.183;6.555;17.453;0.846
NH3;uur;�g/m�;19930105 21:00;19930105 22:00;9.703;1.752;;2.768;12.461;6.614;14.994;0.693
NH3;uur;�g/m�;19930105 22:00;19930105 23:00;10.336;1.724;;2.244;10.927;5.608;13.729;0.611
NH3;uur;�g/m�;19930105 23:00;19930106 00:00;10.748;1.8;;1.821;8.095;4.801;12.631;0.586
NH3;uur;�g/m�;19930106 00:00;19930106 01:00;10.439;1.628;;1.759;6.005;5.1;11.67;0.547
NH3;uur;�g/m�;19930106 01:00;19930106 02:00;9.298;1.461;;1.653;6.107;4.511;11.824;0.525
NH3;uur;�g/m�;19930106 02:00;19930106 03:00;8.39;1.357;;1.462;5.787;4.356;8.255;0.518
NH3;uur;�g/m�;19930106 03:00;19930106 04:00;8.754;1.31;;1.239;5.401;4.832;5.572;0.482
NH3;uur;�g/m�;19930106 04:00;19930106 05:00;8.523;1.511;;1.089;5.727;5.334;4.188;0.486
NH3;uur;�g/m�;19930106 05:00;19930106 06:00;7.879;2.386;;0.948;4.945;5.47;4.091;0.55
NH3;uur;�g/m�;19930106 06:00;19930106 07:00;7.065;4.187;;0.897;4.979;5.105;3.623;0.593
NH3;uur;�g/m�;19930106 07:00;19930106 08:00;7.841;3.367;;0.806;4.46;5.67;3.559;0.615
NH3;uur;�g/m�;19930106 08:00;19930106 09:00;8.786;2.707;;0.807;4.286;6.455;3.245;0.587
NH3;uur;�g/m�;19930106 09:00;19930106 10:00;;3.188;;0.743;4.116;5.869;2.994;0.593
NH3;uur;�g/m�;19930106 10:00;19930106 11:00;;3.13;;0.688;5.013;6.492;;0.596
NH3;uur;�g/m�;19930106 11:00;19930106 12:00;;3.234;;0.606;4.47;7.306;;0.648
NH3;uur;�g/m�;19930106 12:00;19930106 13:00;9.234;3.376;;0.564;6.834;8.199;;0.715
NH3;uur;�g/m�;19930106 13:00;19930106 14:00;8.471;3.216;;0.572;7.04;8.449;;0.682
NH3;uur;�g/m�;19930106 14:00;19930106 15:00;8.212;3.126;;0.616;;9.238;;0.619
NH3;uur;�g/m�;19930106 15:00;19930106 16:00;7.902;3.243;;0.63;6.406;9.154;8.115;0.614
NH3;uur;�g/m�;19930106 16:00;19930106 17:00;8.627;3.533;;0.52;4.983;;7.231;0.703
NH3;uur;�g/m�;19930106 17:00;19930106 18:00;9.838;3.071;;0.584;4.716;8.041;8.29;0.661
NH3;uur;�g/m�;19930106 18:00;19930106 19:00;10.693;2.906;;0.587;5.288;6.722;6.274;0.642
NH3;uur;�g/m�;19930106 19:00;19930106 20:00;10.727;2.328;;0.643;3.68;6.469;6.727;0.618
NH3;uur;�g/m�;19930106 20:00;19930106 21:00;10.354;3.813;;0.711;3.203;6.706;10.109;0.649
NH3;uur;�g/m�;19930106 21:00;19930106 22:00;9.864;4.419;;0.601;3.036;6.765;5.093;0.635
NH3;uur;�g/m�;19930106 22:00;19930106 23:00;8.285;2.986;;0.419;3.022;6.908;5.241;0.669
NH3;uur;�g/m�;19930106 23:00;19930107 00:00;6.855;2.235;;0.431;2.468;6.366;8.296;0.661
NH3;uur;�g/m�;19930107 00:00;19930107 01:00;6.082;1.501;;0.318;4.946;4.247;15.665;0.671
NH3;uur;�g/m�;19930107 01:00;19930107 02:00;6.414;1.078;;0.324;2.699;3.345;14.747;0.529
NH3;uur;�g/m�;19930107 02:00;19930107 03:00;5.927;0.913;;0.296;2.263;3.055;11.517;0.447
NH3;uur;�g/m�;19930107 03:00;19930107 04:00;5.728;0.8;;0.248;2.504;2.77;12.399;0.445
NH3;uur;�g/m�;19930107 04:00;19930107 05:00;4.689;0.713;;0.21;2.046;2.91;15.109;0.425
NH3;uur;�g/m�;19930107 05:00;19930107 06:00;5.97;0.697;;0.142;1.589;2.557;15.171;0.438
NH3;uur;�g/m�;19930107 06:00;19930107 07:00;6.407;0.557;;0.079;2.363;2.3;23.694;0.405
NH3;uur;�g/m�;19930107 07:00;19930107 08:00;7.575;0.475;;0.151;13.049;2.108;23.412;0.338
NH3;uur;�g/m�;19930107 08:00;19930107 09:00;17.329;0.434;;0.086;21.857;2.635;15.397;0.252
NH3;uur;�g/m�;19930107 09:00;19930107 10:00;32.812;0.406;;0.09;20.738;2.998;14.401;0.419
NH3;uur;�g/m�;19930107 10:00;19930107 11:00;25.486;;;0.106;;3.055;16.838;0.404
NH3;uur;�g/m�;19930107 11:00;19930107 12:00;29.644;;;0.2;;4.519;12.852;0.599
NH3;uur;�g/m�;19930107 12:00;19930107 13:00;18.639;;;0.324;;8.259;13.571;0.778
NH3;uur;�g/m�;19930107 13:00;19930107 14:00;18.48;;;0.295;6.405;9.479;11.961;1.155
NH3;uur;�g/m�;19930107 14:00;19930107 15:00;13.566;0.391;;0.501;4.71;7.134;10.22;1.246
NH3;uur;�g/m�;19930107 15:00;19930107 16:00;9.099;0.388;;0.538;1.672;6.318;9.344;1.025
NH3;uur;�g/m�;19930107 16:00;19930107 17:00;10.433;0.384;;0.208;1.238;6.562;8.993;1.238
NH3;uur;�g/m�;19930107 17:00;19930107 18:00;14.123;0.383;;0.169;1.748;7.044;8.799;1.684
NH3;uur;�g/m�;19930107 18:00;19930107 19:00;17.195;0.378;;0.227;3.629;8.197;8.101;1.956
NH3;uur;�g/m�;19930107 19:00;19930107 20:00;10.029;0.907;;0.351;4.028;9.062;6.124;1.66
NH3;uur;�g/m�;19930107 20:00;19930107 21:00;8.054;1.728;;0.37;3.556;8.487;4.043;1.863
NH3;uur;�g/m�;19930107 21:00;19930107 22:00;9.898;1.558;;0.352;2.76;5.387;11.547;1.529
NH3;uur;�g/m�;19930107 22:00;19930107 23:00;11.703;1.597;;0.463;3.806;4.329;8.677;0.967
NH3;uur;�g/m�;19930107 23:00;19930108 00:00;11.335;1.367;;0.391;2.929;4.717;7.529;0.674
NH3;uur;�g/m�;19930108 00:00;19930108 01:00;9.199;1.497;;0.306;2.067;4.949;6.929;0.761
NH3;uur;�g/m�;19930108 01:00;19930108 02:00;8.092;1.987;;0.278;2.155;5.133;7.069;1.281
NH3;uur;�g/m�;19930108 02:00;19930108 03:00;8.731;2.423;;0.324;2.563;7.134;8.564;1.704
NH3;uur;�g/m�;19930108 03:00;19930108 04:00;8.5;2.105;;0.319;1.979;9.059;7.919;2.102
NH3;uur;�g/m�;19930108 04:00;19930108 05:00;7.323;1.217;;0.332;2.727;9.295;7.227;1.457
NH3;uur;�g/m�;19930108 05:00;19930108 06:00;5.277;0.966;;0.333;1.689;7.406;6.966;0.829
NH3;uur;�g/m�;19930108 06:00;19930108 07:00;5.648;0.72;;0.285;1.922;5.58;11.364;0.837
NH3;uur;�g/m�;19930108 07:00;19930108 08:00;7.267;0.733;;0.246;2.076;3.735;10.064;0.673
NH3;uur;�g/m�;19930108 08:00;19930108 09:00;10.72;0.744;;0.24;2.951;2.213;11.874;0.583
NH3;uur;�g/m�;19930108 09:00;19930108 10:00;25.217;0.906;;0.256;7.057;2.089;17.581;0.761
NH3;uur;�g/m�;19930108 10:00;19930108 11:00;17.536;1.114;;0.302;6.255;4.209;18.129;1.241
NH3;uur;�g/m�;19930108 11:00;19930108 12:00;16.933;1.152;;0.341;18.088;5.724;13.451;1.225
NH3;uur;�g/m�;19930108 12:00;19930108 13:00;13.902;1.176;;0.378;14.985;5.62;40.588;1.295
NH3;uur;�g/m�;19930108 13:00;19930108 14:00;11.737;1.222;;0.435;13.604;5.206;62.253;1.73
NH3;uur;�g/m�;19930108 14:00;19930108 15:00;8.396;1.162;;0.495;;5.117;35.016;2.468
NH3;uur;�g/m�;19930108 15:00;19930108 16:00;10.426;1.113;;0.505;10.973;4.177;34.304;2.076
NH3;uur;�g/m�;19930108 16:00;19930108 17:00;14.411;1.048;;0.45;4.856;4.741;31.56;1.798
NH3;uur;�g/m�;19930108 17:00;19930108 18:00;12.49;1.475;;0.386;5.105;4.197;15.065;1.298
NH3;uur;�g/m�;19930108 18:00;19930108 19:00;14.47;3.356;;0.347;4.027;9.797;13.53;1.077
NH3;uur;�g/m�;19930108 19:00;19930108 20:00;15.094;5.338;;0.297;6.101;10.767;29.843;1.104
NH3;uur;�g/m�;19930108 20:00;19930108 21:00;23.409;5.981;;0.264;9.883;9.427;20.784;1.241
NH3;uur;�g/m�;19930108 21:00;19930108 22:00;17.837;5.416;;0.252;7.435;9.911;20.953;1.122
NH3;uur;�g/m�;19930108 22:00;19930108 23:00;19.362;1.91;;0.305;9.789;11.15;42.715;0.994
NH3;uur;�g/m�;19930108 23:00;19930109 00:00;21.51;1.321;;0.549;11.622;13.732;43.564;0.866
NH3;uur;�g/m�;19930109 00:00;19930109 01:00;20.442;0.554;;0.945;10.215;12.954;23.705;1.078
NH3;uur;�g/m�;19930109 01:00;19930109 02:00;19.281;0.423;;1.08;10.438;11.473;16.1;1.187
NH3;uur;�g/m�;19930109 02:00;19930109 03:00;13.952;0.384;;0.986;8.629;9.59;12.785;1.066
NH3;uur;�g/m�;19930109 03:00;19930109 04:00;14.68;0.367;;1.215;6.98;8.133;9.412;1.037
NH3;uur;�g/m�;19930109 04:00;19930109 05:00;14.345;0.37;;1.33;6.32;9.062;10.156;1.763
NH3;uur;�g/m�;19930109 05:00;19930109 06:00;14.758;0.373;;1.254;5.884;9.899;10.955;2.311
NH3;uur;�g/m�;19930109 06:00;19930109 07:00;11.802;0.42;;1.284;6;9.591;9.387;2.822
NH3;uur;�g/m�;19930109 07:00;19930109 08:00;11.709;0.42;;1.151;5.559;9.942;9.091;3.056
NH3;uur;�g/m�;19930109 08:00;19930109 09:00;9.355;0.807;;0.782;4.052;8.755;8.378;2.914
NH3;uur;�g/m�;19930109 09:00;19930109 10:00;9.299;1.183;;0.958;4.444;6.594;11.984;2.127
NH3;uur;�g/m�;19930109 10:00;19930109 11:00;12.542;4.266;;1.318;4.236;5.982;16.867;1.33
NH3;uur;�g/m�;19930109 11:00;19930109 12:00;12.058;2.97;;1.627;3.671;6.507;18.724;1.247
NH3;uur;�g/m�;19930109 12:00;19930109 13:00;10.753;3.443;;1.816;4.047;7.769;17.117;1.595
NH3;uur;�g/m�;19930109 13:00;19930109 14:00;10.048;4.883;;1.775;3.593;8.444;15.151;2.211
NH3;uur;�g/m�;19930109 14:00;19930109 15:00;10.834;7.872;;1.845;4.271;8.399;13.439;2.486
NH3;uur;�g/m�;19930109 15:00;19930109 16:00;10.27;9.732;;1.491;4.641;8.836;11.72;1.71
NH3;uur;�g/m�;19930109 16:00;19930109 17:00;9.987;11.879;;1.051;4.239;9.495;7.97;1.119
NH3;uur;�g/m�;19930109 17:00;19930109 18:00;9.149;4.664;;0.736;2.17;7.796;5.234;1.139
NH3;uur;�g/m�;19930109 18:00;19930109 19:00;7.41;2.355;;0.674;18.587;6.455;3.756;1.09
NH3;uur;�g/m�;19930109 19:00;19930109 20:00;5.761;1.663;;0.528;2.57;5.981;5.787;1.037
NH3;uur;�g/m�;19930109 20:00;19930109 21:00;5.576;1.14;;0.368;3.369;6.463;7.68;0.994
NH3;uur;�g/m�;19930109 21:00;19930109 22:00;4.896;1.316;;0.281;3.777;6.819;8.287;1.174
NH3;uur;�g/m�;19930109 22:00;19930109 23:00;4.889;1.565;;0.239;3.608;6.281;10.488;1.108
NH3;uur;�g/m�;19930109 23:00;19930110 00:00;5.412;2.349;;0.218;3.454;4.898;9.901;1.344
NH3;uur;�g/m�;19930110 00:00;19930110 01:00;6.026;4.894;;0.249;3.751;4.845;9.926;0.928
NH3;uur;�g/m�;19930110 01:00;19930110 02:00;6.605;9.075;;0.301;3.334;5.478;9.914;0.645
NH3;uur;�g/m�;19930110 02:00;19930110 03:00;7.612;3.43;;0.249;2.301;7.109;;0.635
NH3;uur;�g/m�;19930110 03:00;19930110 04:00;6.821;4.478;;0.28;2.745;9.931;;0.586
NH3;uur;�g/m�;19930110 04:00;19930110 05:00;8.111;2.016;;0.24;3.137;10.465;;0.701
NH3;uur;�g/m�;19930110 05:00;19930110 06:00;8.498;4.535;;0.226;3.819;9.748;;1.147
NH3;uur;�g/m�;19930110 06:00;19930110 07:00;9.04;2.694;;0.273;8.078;7.502;;1.488
NH3;uur;�g/m�;19930110 07:00;19930110 08:00;8.821;2.404;;0.287;7.132;6.833;;1.439
NH3;uur;�g/m�;19930110 08:00;19930110 09:00;8.006;4.277;;0.394;5.01;7.731;;1.32
NH3;uur;�g/m�;19930110 09:00;19930110 10:00;7.453;4.648;;0.573;3.86;6.996;;0.901
NH3;uur;�g/m�;19930110 10:00;19930110 11:00;6.802;2.959;;1.04;4.195;6.977;;1.135
NH3;uur;�g/m�;19930110 11:00;19930110 12:00;6.923;2.935;;1.182;3.923;6.25;;1.569
NH3;uur;�g/m�;19930110 12:00;19930110 13:00;6.744;2.49;;1.149;3.468;6.467;;1.99
NH3;uur;�g/m�;19930110 13:00;19930110 14:00;5.806;2.983;;1.375;3.314;5.968;;1.872
NH3;uur;�g/m�;19930110 14:00;19930110 15:00;5.935;3.299;;1.478;3.034;5.971;;1.518
NH3;uur;�g/m�;19930110 15:00;19930110 16:00;5.091;2.236;;1.624;3.197;5.487;;1.559
NH3;uur;�g/m�;19930110 16:00;19930110 17:00;4.436;1.397;;1.184;2.93;4.689;;1.347
NH3;uur;�g/m�;19930110 17:00;19930110 18:00;4.207;1.269;;1.143;2.544;4.437;;1.163
NH3;uur;�g/m�;19930110 18:00;19930110 19:00;3.503;3.21;;0.922;1.853;3.867;;1.035
NH3;uur;�g/m�;19930110 19:00;19930110 20:00;3.523;7.133;;0.946;1.792;3.484;;0.843
NH3;uur;�g/m�;19930110 20:00;19930110 21:00;4.112;6.225;;0.927;2.747;3.609;;0.858
NH3;uur;�g/m�;19930110 21:00;19930110 22:00;4.31;6.707;;0.778;3.203;4.444;;1.261
NH3;uur;�g/m�;19930110 22:00;19930110 23:00;4.333;6.489;;0.872;3.928;5.989;;1.366
NH3;uur;�g/m�;19930110 23:00;19930111 00:00;5.095;9.52;;0.756;3.879;5.818;;1.899
NH3;uur;�g/m�;19930111 00:00;19930111 01:00;6.199;10.317;;0.602;3.216;7.306;;2.835
NH3;uur;�g/m�;19930111 01:00;19930111 02:00;5.595;14.002;;0.574;3.175;6.921;;4.531
NH3;uur;�g/m�;19930111 02:00;19930111 03:00;6.839;9.782;;0.56;3.298;7.143;;4.872
NH3;uur;�g/m�;19930111 03:00;19930111 04:00;6.688;8.818;;0.45;3.421;6.679;;3.332
NH3;uur;�g/m�;19930111 04:00;19930111 05:00;6.059;5.495;;0.383;3.204;6.691;;2.165
NH3;uur;�g/m�;19930111 05:00;19930111 06:00;5.08;4.36;;0.315;1.917;5.468;;1.158
NH3;uur;�g/m�;19930111 06:00;19930111 07:00;4.612;3.901;;0.527;2.225;4.813;;0.741
NH3;uur;�g/m�;19930111 07:00;19930111 08:00;4.847;1.412;;1.049;2.653;4.251;;0.658
NH3;uur;�g/m�;19930111 08:00;19930111 09:00;5.357;2.903;;1.075;2.949;4.118;;1.338
NH3;uur;�g/m�;19930111 09:00;19930111 10:00;5.476;4.407;;0.993;2.954;4.143;;1.266
NH3;uur;�g/m�;19930111 10:00;19930111 11:00;5.166;2.443;;;2.957;4.892;;1.773
NH3;uur;�g/m�;19930111 11:00;19930111 12:00;4.659;2.367;;;2.933;7.171;;3.449
NH3;uur;�g/m�;19930111 12:00;19930111 13:00;4.802;2.477;;;2.477;6.38;;3.218
NH3;uur;�g/m�;19930111 13:00;19930111 14:00;4.341;2.247;;;2.305;6.554;;1.714
NH3;uur;�g/m�;19930111 14:00;19930111 15:00;4.779;2.362;1.218;0.47;3.113;9.02;;1.357